Weather History for Bay City, TX

Change the Weather History Date:

Tuesday, October 16, 2012

  Actual Average (KLBX) Record (KLBX)
Temperature  
Mean Temperature 72 °F -  
Max Temperature 83 °F 78 °F 87 °F (1998)
Min Temperature 60 °F 60 °F 45 °F (2002)
Cooling Degree Days 6    
Growing Degree Days 22 (Base 50)    
Moisture  
Dew Point 64 °F    
Average Humidity 86    
Maximum Humidity 100    
Minimum Humidity 56    
Precipitation  
Precipitation 0.17 in - - ()
Sea Level Pressure  
Sea Level Pressure 29.89 in    
Wind  
Wind Speed 3 mph (NE)    
Max Wind Speed 13 mph    
Max Gust Speed 17 mph    
Visibility 10 miles    
Events Rain    
Averages and records for this station are not official NWS values.
T = Trace of Precipitation, MM = Missing Value Source: NWS Daily Summary

Daily Weather History Graph

Daily Weather History Graph

Search for Another Location

Airport:

Trip Planner

Search our weather history database for the weather conditions in past years. The results will help you decide how hot, cold, wet, or windy it might be!

Date:

Astronomy

Oct. 16, 2012 Rise Set
Actual Time 7:25 AM CDT 6:51 PM CDT
Civil Twilight 7:01 AM CDT 7:15 PM CDT
Nautical Twilight 6:34 AM CDT 7:43 PM CDT
Astronomical Twilight 6:06 AM CDT 8:10 PM CDT
Moon 8:39 AM CDT (10/16) 7:48 PM CDT (10/16)
Length of Visible Light 12h 14m
Length of Day
11h 26m
New Moon, 2% of the Moon is Illuminated
Oct 16
New Moon
Oct 21
First Quarter
Oct 29
Full
Nov 6
Last Quarter
Nov 13
New

Hourly Weather History & Observations

Time (CDT) Temp. Heat Index Dew Point Humidity Pressure Visibility Wind Dir Wind Speed Gust Speed Precip Events Conditions
12:15 AM 63.0 °F - 63.0 °F 100% 29.99 in 10.0 mi Calm Calm - N/A   Clear
12:35 AM 62.6 °F - 62.6 °F 100% 29.99 in 10.0 mi Calm Calm - N/A   Clear
12:55 AM 62.4 °F - 62.4 °F 100% 29.98 in 10.0 mi Calm Calm - N/A   Clear
1:15 AM 62.1 °F - 62.1 °F 100% 29.97 in 10.0 mi Calm Calm - N/A   Clear
1:35 AM 60.8 °F - 60.8 °F 100% 29.97 in 10.0 mi Calm Calm - N/A   Clear
1:55 AM 60.3 °F - 60.3 °F 100% 29.96 in 10.0 mi Calm Calm - N/A   Clear
2:15 AM 60.4 °F - 60.4 °F 100% 29.96 in 10.0 mi Calm Calm - N/A   Clear
2:35 AM 61.2 °F - 61.2 °F 100% 29.95 in 10.0 mi North 3.5 mph - N/A   Clear
2:55 AM 61.7 °F - 61.7 °F 100% 29.95 in 10.0 mi North 3.5 mph - N/A   Clear
3:15 AM 62.6 °F - 62.6 °F 100% 29.94 in 10.0 mi North 3.5 mph - N/A   Clear
3:35 AM 63.3 °F - 63.3 °F 100% 29.94 in 10.0 mi Calm Calm - N/A   Clear
3:55 AM 64.0 °F - 63.0 °F 96% 29.93 in 10.0 mi Calm Calm - N/A   Clear
4:15 AM 64.4 °F - 62.1 °F 92% 29.93 in 10.0 mi Calm Calm - N/A   Clear
4:35 AM 64.2 °F - 59.2 °F 84% 29.93 in 10.0 mi Calm Calm - N/A   Clear
4:55 AM 62.6 °F - 59.0 °F 88% 29.93 in 10.0 mi Calm Calm - N/A   Clear
5:15 AM 64.4 °F - 59.2 °F 83% 29.93 in 10.0 mi NE 3.5 mph - N/A   Clear
5:35 AM 64.2 °F - 59.9 °F 86% 29.92 in 10.0 mi NE 3.5 mph - N/A   Clear
5:55 AM 62.6 °F - 59.0 °F 88% 29.92 in 10.0 mi NE 4.6 mph - N/A   Clear
6:15 AM 63.5 °F - 59.5 °F 87% 29.92 in 10.0 mi NE 4.6 mph - N/A   Clear
6:35 AM 63.1 °F - 59.0 °F 86% 29.92 in 10.0 mi NE 3.5 mph - N/A   Clear
6:55 AM 60.8 °F - 59.0 °F 94% 29.93 in 10.0 mi NE 3.5 mph - N/A   Clear
7:15 AM 61.2 °F - 61.0 °F 99% 29.93 in 10.0 mi Calm Calm - N/A   Clear
7:35 AM 61.7 °F - 61.2 °F 98% 29.93 in 10.0 mi NE 3.5 mph - N/A   Clear
7:55 AM 62.1 °F - 59.5 °F 91% 29.93 in 10.0 mi Calm Calm - N/A   Clear
8:15 AM 64.4 °F - 60.8 °F 88% 29.93 in 10.0 mi Calm Calm - N/A   Clear
8:35 AM 67.6 °F - 63.0 °F 85% 29.92 in 10.0 mi ENE 4.6 mph - N/A   Clear
8:55 AM 70.0 °F - 64.4 °F 82% 29.93 in 10.0 mi ENE 4.6 mph - N/A   Clear
9:15 AM 70.7 °F - 64.6 °F 81% 29.93 in 10.0 mi ENE 4.6 mph - N/A   Clear
9:35 AM 71.2 °F - 64.8 °F 80% 29.93 in 10.0 mi Calm Calm - N/A   Clear
9:55 AM 72.0 °F - 65.1 °F 79% 29.93 in 10.0 mi East 3.5 mph - N/A   Clear
10:15 AM 73.0 °F - 65.5 °F 77% 29.93 in 10.0 mi Calm Calm - N/A   Clear
10:35 AM 73.4 °F - 64.4 °F 73% 29.93 in 10.0 mi Calm Calm - N/A   Clear
10:55 AM 76.5 °F - 66.4 °F 71% 29.93 in 10.0 mi Calm Calm - N/A   Clear
11:15 AM 78.8 °F - 66.9 °F 67% 29.94 in 10.0 mi ESE 3.5 mph - N/A   Clear
11:35 AM 81.1 °F 83.5 °F 67.1 °F 62% 29.93 in 10.0 mi East 3.5 mph - N/A   Scattered Clouds
11:55 AM 82.6 °F 84.7 °F 66.0 °F 57% 29.93 in 10.0 mi SSE 8.1 mph - N/A   Mostly Cloudy
12:15 PM 82.0 °F 84.1 °F 65.8 °F 58% 29.92 in 10.0 mi SSE 8.1 mph - N/A   Overcast
12:35 PM 81.7 °F 83.6 °F 65.8 °F 58% 29.91 in 10.0 mi South 4.6 mph - N/A   Scattered Clouds
12:55 PM 82.4 °F 84.4 °F 66.0 °F 57% 29.90 in 10.0 mi SSE 4.6 mph - N/A   Mostly Cloudy
1:15 PM 82.2 °F 84.2 °F 65.7 °F 57% 29.88 in 10.0 mi SSE 6.9 mph - N/A   Overcast
1:35 PM 82.9 °F 85.4 °F 66.6 °F 58% 29.87 in 10.0 mi South 5.8 mph - N/A   Scattered Clouds
1:55 PM 83.5 °F 86.0 °F 66.6 °F 57% 29.86 in 10.0 mi SSW 4.6 mph - N/A   Mostly Cloudy
2:15 PM 83.5 °F 85.7 °F 66.2 °F 56% 29.85 in 10.0 mi Calm Calm - N/A   Mostly Cloudy
2:35 PM 83.5 °F 86.0 °F 66.6 °F 57% 29.84 in 10.0 mi South 5.8 mph - N/A   Mostly Cloudy
2:55 PM 83.3 °F 85.9 °F 66.9 °F 58% 29.84 in 10.0 mi Calm Calm - N/A   Mostly Cloudy
3:15 PM 82.8 °F 85.3 °F 67.3 °F 59% 29.83 in 10.0 mi Calm Calm - N/A   Overcast
3:35 PM 80.6 °F 83.2 °F 68.0 °F 65% 29.83 in 10.0 mi NE 6.9 mph - N/A Rain Light Rain
3:55 PM 80.6 °F 83.5 °F 68.9 °F 67% 29.83 in 10.0 mi NE 6.9 mph - N/A   Light Drizzle
4:15 PM 79.3 °F - 68.7 °F 70% 29.82 in 10.0 mi NE 8.1 mph - N/A   Light Drizzle
4:35 PM 77.0 °F - 69.8 °F 78% 29.82 in 10.0 mi NE 6.9 mph - N/A Rain Light Rain
4:55 PM 75.4 °F - 70.5 °F 85% 29.82 in 10.0 mi NNE 8.1 mph - N/A Rain Light Rain
5:15 PM 73.4 °F - 69.6 °F 88% 29.82 in 7.0 mi NNE 9.2 mph - 0.01 in Rain Rain
5:35 PM 71.2 °F - 68.0 °F 89% 29.82 in 10.0 mi NNE 10.4 mph 16.1 mph 0.03 in Rain Light Rain
5:55 PM 69.4 °F - 66.6 °F 91% 29.82 in 10.0 mi North 10.4 mph 17.3 mph 0.03 in Rain Light Rain
6:15 PM 68.4 °F - 67.8 °F 98% 29.83 in 10.0 mi NNE 9.2 mph - N/A   Light Drizzle
6:35 PM 68.2 °F - 68.2 °F 100% 29.83 in 10.0 mi North 12.7 mph 16.1 mph N/A   Light Drizzle
6:55 PM 66.9 °F - 66.9 °F 100% 29.85 in 10.0 mi North 10.4 mph - N/A Rain Light Rain
7:15 PM 65.8 °F - 65.8 °F 100% 29.84 in 10.0 mi NE 9.2 mph - 0.01 in Rain Light Rain
7:35 PM 64.9 °F - 64.9 °F 100% 29.83 in 10.0 mi NNE 5.8 mph - 0.01 in Rain Light Rain
7:55 PM 64.8 °F - 64.8 °F 100% 29.83 in 10.0 mi NE 8.1 mph - 0.01 in Rain Light Rain
8:15 PM 65.1 °F - 65.1 °F 100% 29.85 in 10.0 mi NNE 5.8 mph - 0.02 in Rain Light Rain
8:35 PM 65.3 °F - 65.3 °F 100% 29.85 in 10.0 mi NNE 9.2 mph - 0.04 in Rain Rain
8:55 PM 65.7 °F - 65.7 °F 100% 29.86 in 7.0 mi NNE 8.1 mph - 0.07 in Rain Heavy Rain
9:15 PM 65.8 °F - 65.8 °F 100% 29.85 in 10.0 mi NE 9.2 mph - 0.01 in Rain Light Rain
9:35 PM 65.8 °F - 65.8 °F 100% 29.88 in 7.0 mi NNE 4.6 mph - 0.04 in Rain Heavy Rain
9:55 PM 65.8 °F - 65.8 °F 100% 29.86 in 10.0 mi ENE 9.2 mph - 0.05 in Rain Light Rain
10:15 PM 65.7 °F - 65.7 °F 100% 29.85 in 10.0 mi East 10.4 mph - 0.01 in   Light Drizzle
10:35 PM 65.5 °F - 65.5 °F 100% 29.84 in 10.0 mi East 8.1 mph - 0.01 in   Mostly Cloudy
10:55 PM 65.3 °F - 65.3 °F 100% 29.83 in 10.0 mi East 6.9 mph - 0.01 in   Scattered Clouds
11:15 PM 65.3 °F - 65.3 °F 100% 29.83 in 10.0 mi East 9.2 mph - N/A   Mostly Cloudy
11:35 PM 64.4 °F - 64.4 °F 100% 29.81 in 10.0 mi East 8.1 mph - N/A   Scattered Clouds
11:55 PM 65.7 °F - 65.7 °F 100% 29.81 in 10.0 mi East 8.1 mph - N/A   Scattered Clouds